SCP
2 2 1 1 0 0 0 0 0 0 0 0 0 0 0 0 0 0 0 0 0 0 1 2 2 1 1 1 1 1 1 1 1 1 1 1 1 1 1 1 1 1 1 1 1 1 1 1 1
2 1 1 1 0 0 0 0 0 0 0 0 0 0 0 0 0 0 0 0 0 0 1 1 1 1 1 1 1 1 1 0 0 1 1 1 1 1 1 1 1 1 1 1 1 1 1 1 1
1 1 1 1 0 0 0 0 0 0 0 0 0 0 0 0 0 0 0 0 0 0 0 1 1 1 1 1 1 1 1 0 0 0 0 1 1 1 2 1 1 1 1 1 1 1 1 1 1
1 1 1 1 0 0 0 0 0 0 0 0 0 0 0 0 1 0 0 0 0 0 0 1 1 1 1 1 1 1 1 1 0 0 0 0 1 1 1 1 1 1 1 1 1 1 1 1 1
1 1 1 1 0 0 0 0 0 0 0 0 0 0 0 1 1 1 1 1 0 0 0 0 1 1 1 1 1 1 1 1 1 1 1 1 1 1 1 1 1 1 1 1 1 1 1 0 0
1 1 1 0 0 0 0 0 0 0 0 0 0 0 0 1 1 1 1 1 0 0 0 0 1 1 1 1 1 1 1 1 1 1 1 1 1 1 1 1 1 1 1 1 1 1 1 0 0
1 1 1 0 0 0 0 0 0 0 0 0 0 0 0 1 1 0 0 0 0 0 0 0 0 1 1 2 1 1 1 1 1 1 1 1 1 1 1 1 1 1 1 1 1 1 0 0 0
2 2 1 1 0 0 0 0 0 0 0 0 0 0 0 1 1 0 0 0 0 0 0 0 0 1 1 1 1 1 1 1 1 1 1 1 1 1 1 1 1 1 1 1 1 0 0 0 0
2 2 2 1 0 0 1 0 0 0 0 0 0 0 0 1 0 0 0 0 0 0 0 0 0 0 0 1 1 1 1 1 1 1 1 1 1 1 1 1 1 1 0 0 0 0 0 0 0
2 2 1 1 0 1 1 1 0 0 0 0 0 1 1 1 1 0 0 0 0 0 0 0 0 0 0 1 1 1 1 1 1 1 1 0 0 0 0 0 0 0 0 0 0 0 0 0 0
2 2 1 0 0 1 1 1 0 0 0 0 1 1 1 1 1 1 1 0 0 0 0 0 0 1 1 1 1 1 1 1 1 1 1 0 0 0 0 0 0 0 0 0 0 0 0 0 0
1 1 0 0 0 0 1 1 0 0 0 1 1 1 2 2 1 1 1 1 0 1 1 1 1 1 2 2 1 1 1 1 1 1 1 0 0 0 0 0 0 0 0 0 0 0 0 0 0
0 0 0 0 0 0 1 1 0 0 1 1 1 1 2 2 2 2 1 1 1 1 1 1 1 2 2 1 1 1 0 1 1 1 0 0 0 0 0 0 0 0 0 0 0 0 0 0 0
0 0 0 0 0 0 1 1 1 1 1 1 1 1 2 2 2 2 2 2 1 1 1 1 2 2 1 1 1 0 0 0 0 0 0 0 0 0 0 0 0 0 0 0 0 0 0 0 0
0 0 0 0 0 0 0 0 1 1 1 1 0 1 1 2 2 2 2 2 1 1 1 1 2 1 1 1 1 1 1 1 1 0 0 0 0 0 0 0 0 0 0 0 0 0 0 0 0
0 0 0 0 0 0 0 0 0 1 1 0 0 0 1 1 1 1 1 1 1 1 1 2 2 2 2 1 1 1 1 1 1 1 0 0 0 0 0 0 0 0 0 0 0 0 0 0 0
0 0 0 0 0 0 0 0 0 0 0 0 0 0 0 0 0 0 0 1 1 1 2 2 2 2 2 2 1 1 1 1 1 1 1 1 0 0 0 0 0 0 0 0 0 0 0 0 0
0 0 0 0 0 0 0 0 0 0 0 0 0 0 0 0 0 0 0 1 1 1 1 1 1 1 2 2 1 1 1 1 1 1 1 1 0 0 0 0 0 0 0 0 0 0 0 0 0
0 0 0 0 0 0 0 0 0 0 0 0 0 0 0 0 0 1 1 1 2 2 1 1 1 1 1 2 1 1 1 1 1 1 1 1 1 1 1 0 0 0 0 0 0 0 0 0 0
0 0 0 0 0 0 0 0 1 1 1 1 1 0 0 0 1 1 1 2 2 2 1 1 0 0 1 1 1 1 1 1 1 1 1 1 1 1 1 1 0 0 0 0 0 0 0 0 0
0 0 0 0 0 0 0 1 1 1 1 1 1 1 1 1 1 1 1 2 2 2 2 1 1 0 1 1 1 1 1 1 2 2 1 1 1 1 1 1 0 0 0 0 0 0 0 0 0
0 0 0 1 0 0 0 0 1 1 1 1 1 1 1 1 1 1 1 1 1 2 2 1 1 1 1 1 1 1 1 2 2 2 1 1 1 1 1 1 0 0 0 0 0 0 0 1 1
0 0 0 0 0 0 0 0 1 1 1 1 1 1 2 2 1 1 1 1 1 1 1 1 1 1 1 1 2 2 2 2 2 2 2 2 1 1 1 0 0 0 0 0 0 1 1 1 1
0 0 0 0 0 0 0 1 1 1 1 1 1 1 2 2 2 1 1 1 1 1 2 2 2 1 1 1 1 1 1 1 1 1 1 1 1 1 1 1 1 0 0 1 1 1 1 1 1
0 0 0 0 0 0 1 1 1 1 0 1 1 1 2 2 2 1 1 1 1 1 2 2 2 1 1 1 1 1 1 1 1 1 1 1 1 1 1 1 1 1 1 1 1 1 1 1 1
0 0 0 0 0 0 1 1 0 0 0 0 1 1 1 1 1 1 1 1 1 2 2 2 2 2 1 1 1 1 1 1 1 0 1 1 1 1 1 1 1 1 1 1 1 1 1 1 1
0 0 0 0 0 0 1 1 0 0 0 0 1 1 1 1 1 1 1 1 2 3 3 2 2 2 1 1 1 1 1 1 1 1 1 1 1 1 1 1 1 1 1 0 0 1 1 1 1
0 0 0 0 0 0 1 1 0 0 0 0 1 1 1 1 1 1 1 2 3 4 4 3 3 2 2 2 2 2 1 1 1 1 1 1 1 1 2 2 2 1 1 0 0 1 1 1 1
0 0 0 0 0 0 0 1 1 0 0 0 0 1 1 1 1 1 2 3 4 5 4 3 2 2 3 3 3 3 2 1 1 1 1 1 1 2 2 2 2 2 1 1 1 1 0 0 0
0 0 0 0 0 0 0 1 1 0 0 0 0 1 1 1 1 1 2 3 5 5 4 2 2 2 3 3 4 3 2 1 1 1 1 1 1 2 2 3 3 3 2 1 1 1 0 0 0
Wind_Speed
7 5 3 1 4 5 3 2 1 2 3 2 4 5 5 3 2 2 1 1 2 2 2 3 7 9 10 10 11 12 12 13 13 13 13 13 13 14 13 13 13 14 14 14 15 14 14 14 14
5 4 1 3 5 3 2 2 2 2 3 3 4 5 5 4 3 3 1 1 2 2 2 3 8 9 10 10 10 11 12 12 12 13 13 12 12 13 13 13 13 14 14 15 14 14 14 14 13
5 2 3 4 3 3 2 0 3 4 3 2 3 4 4 2 2 2 1 2 3 3 2 2 8 9 10 10 10 11 11 11 12 12 12 12 13 13 14 13 13 13 14 14 14 14 13 13 12
3 2 4 5 3 1 3 3 4 5 3 4 4 4 3 2 2 3 5 5 3 2 2 2 7 8 9 9 9 10 11 11 11 11 11 12 12 13 13 13 12 12 13 13 13 13 12 11 11
2 4 6 4 2 2 3 4 3 3 3 3 4 4 3 3 5 7 6 5 3 1 1 1 6 8 9 9 9 10 10 10 10 10 10 10 11 11 11 11 11 11 11 11 11 11 11 10 9
4 4 5 2 2 2 3 3 3 4 3 3 4 4 2 2 4 5 4 3 3 2 2 1 5 8 7 8 8 9 9 9 9 9 9 10 10 10 10 10 10 10 10 10 10 9 9 8 7
4 4 3 2 2 1 2 2 3 3 3 2 3 4 1 1 3 4 4 3 2 2 2 2 2 3 5 7 8 8 8 8 8 8 9 9 9 9 8 8 8 8 8 8 8 8 7 6 6
4 5 3 1 2 1 3 3 2 3 3 3 3 5 4 3 4 5 5 4 3 2 2 2 3 3 3 3 6 6 6 7 7 7 7 8 8 7 7 6 6 6 7 7 6 6 6 5 4
3 5 1 3 4 2 4 3 2 2 4 2 2 3 4 7 8 6 4 3 2 2 1 2 2 2 2 2 3 4 5 5 6 5 7 6 4 4 4 4 5 6 5 5 5 5 4 4 3
4 3 4 4 5 5 4 4 4 3 3 2 5 6 8 9 8 7 5 4 3 2 1 1 1 2 2 2 3 2 3 3 4 3 4 3 3 3 3 4 4 5 5 4 3 3 3 2 2
4 4 2 2 4 6 5 4 3 6 2 3 7 10 10 8 7 6 5 4 4 3 2 2 2 2 2 2 2 2 2 2 3 4 4 3 3 3 3 2 3 3 3 2 2 2 1 1 1
3 1 3 3 4 5 6 5 3 3 3 6 10 11 10 9 8 7 6 4 3 3 2 2 2 2 2 1 1 1 1 1 2 2 3 2 2 2 2 1 2 2 1 1 1 1 1 1 1
2 2 2 5 6 6 6 4 3 1 3 8 10 10 10 8 6 5 4 4 4 3 3 2 2 3 2 2 1 2 1 1 1 1 2 2 1 1 1 1 1 1 1 1 1 1 1 1 1
3 5 5 5 5 4 6 3 3 1 6 9 10 9 8 8 7 5 4 4 4 4 3 2 3 3 3 2 2 1 1 1 1 1 1 1 1 1 1 1 1 1 1 1 1 1 0 0 0
5 6 5 3 3 3 6 3 0 3 7 8 8 7 7 7 6 7 6 6 5 4 3 3 3 3 3 2 1 1 1 1 1 1 1 1 1 1 1 1 1 1 1 1 1 1 1 1 1
5 5 2 1 3 3 5 1 2 5 8 7 7 7 6 6 6 6 6 5 5 4 4 4 4 4 3 2 1 1 1 1 1 0 0 1 1 1 1 1 0 1 1 1 1 1 1 1 1
4 2 1 1 2 4 4 3 3 6 7 6 6 6 6 5 5 5 5 5 5 5 5 4 3 4 4 3 1 1 1 1 0 0 0 0 1 1 2 1 0 1 1 1 1 1 1 1 1
4 3 2 3 3 4 3 2 4 7 7 6 5 5 6 7 7 6 6 5 5 5 5 5 4 3 3 2 1 1 1 0 0 0 0 1 1 1 1 1 0 1 1 1 1 1 1 1 1
5 4 3 3 3 4 4 3 5 7 7 6 6 6 6 7 5 4 5 5 5 4 5 5 4 3 3 2 2 1 1 1 1 1 1 1 1 1 1 1 1 1 1 1 1 1 1 1 1
4 4 2 1 2 4 2 3 4 8 10 10 9 8 8 6 4 5 5 5 5 6 5 5 5 4 4 3 2 2 2 1 1 1 0 1 1 2 2 2 1 1 1 1 1 1 1 0 0
2 5 4 3 2 3 2 3 2 4 5 5 6 6 6 8 8 8 7 6 6 6 7 6 5 5 4 3 2 2 2 1 1 1 1 1 1 2 2 2 2 1 1 1 1 1 2 1 0
3 4 4 4 4 1 2 2 5 3 4 7 7 8 9 8 8 8 8 8 8 8 6 5 5 5 4 4 3 3 3 2 2 1 1 1 1 1 1 2 2 1 1 1 2 2 1 2 1
4 2 4 3 4 2 2 1 7 1 4 9 10 10 10 10 9 10 10 10 8 7 6 5 5 5 4 4 5 4 2 2 1 0 1 1 1 1 1 2 2 1 1 1 1 1 2 2 2
5 7 6 6 5 1 3 3 6 4 7 7 9 10 10 10 10 9 8 7 6 6 6 5 5 5 5 5 4 4 4 3 2 1 1 1 1 1 1 1 1 1 1 2 2 2 2 2 2
5 6 4 4 3 5 2 3 8 6 7 8 8 9 9 9 9 9 8 8 8 8 7 6 6 6 5 5 5 5 5 4 4 3 3 2 1 1 2 1 1 1 2 2 2 1 1 2 2
4 8 8 5 5 4 1 5 7 5 4 4 5 5 6 8 9 9 10 10 9 9 8 7 7 6 6 6 5 5 5 4 3 3 3 3 2 2 2 1 2 2 2 2 1 1 1 1 1
6 3 5 7 3 0 4 6 8 2 2 2 3 3 6 8 8 9 9 9 9 9 9 9 8 7 6 6 5 4 5 4 4 3 3 3 2 2 2 2 2 2 2 2 1 1 1 1 1
5 8 6 6 6 2 3 4 5 4 4 3 3 5 6 6 7 7 7 8 8 8 8 8 8 8 6 6 6 5 5 5 4 3 4 3 3 2 2 2 2 2 2 1 1 1 1 1 2
4 4 5 5 5 6 3 7 7 7 6 6 7 6 6 6 7 7 7 7 7 6 7 7 7 7 6 6 6 5 5 5 4 4 4 4 3 3 2 2 2 2 2 2 1 2 1 2 2
4 6 8 6 4 4 4 8 5 5 5 6 7 6 5 5 5 5 6 6 6 7 6 7 7 7 7 6 6 6 5 4 4 4 4 4 3 3 3 2 2 2 2 2 2 2 2 2 2
Wind_Direction
155 148 144 91 54 50 28 358 48 61 55 43 69 77 88 66 75 127 288 77 57 27 11 88 92 92 91 89 88 94 94 96 96 98 102 104 107 107 106 105 105 106 105 106 111 113 114 116 118
148 149 113 59 73 62 353 357 53 67 129 127 69 65 69 59 57 95 70 64 79 62 29 82 93 93 93 92 90 93 94 96 96 97 100 101 105 104 104 103 103 105 106 106 106 108 114 116 118
160 160 84 67 79 140 173 114 110 101 102 67 67 55 65 77 93 119 159 122 84 62 33 85 98 97 99 98 95 92 94 95 97 98 98 98 101 103 102 100 101 104 106 107 108 108 111 114 116
138 60 54 63 56 224 164 152 130 116 67 47 82 65 56 68 125 133 127 115 95 62 26 89 101 102 104 99 97 94 94 96 98 99 100 100 102 101 102 101 100 102 105 107 108 110 112 115 116
77 73 57 43 20 27 98 130 115 89 71 61 81 82 38 20 98 117 125 128 126 97 29 64 103 107 107 101 97 96 93 94 98 100 100 102 105 105 104 102 101 103 106 107 108 109 111 115 119
61 67 72 52 29 50 87 99 91 82 85 84 88 91 47 95 117 137 134 133 126 102 56 77 105 106 106 103 98 96 94 92 93 97 99 101 101 102 102 102 104 105 106 109 111 109 110 113 118
97 87 107 123 81 77 137 117 111 116 106 116 117 98 100 152 150 132 117 115 108 93 72 45 65 85 99 104 98 97 97 96 95 93 94 96 99 99 99 100 103 106 109 111 114 113 113 115 116
121 94 76 95 120 148 138 105 99 119 109 120 113 128 168 190 140 111 98 97 100 92 74 51 50 51 52 72 94 98 97 95 94 92 91 93 94 94 96 96 99 105 111 112 116 118 116 115 115
96 76 142 189 166 160 135 113 122 83 105 106 100 132 149 136 126 114 102 91 102 109 77 75 62 57 55 55 77 84 91 83 78 77 81 74 58 62 78 93 103 109 112 116 119 125 122 114 106
93 120 212 198 167 145 140 131 142 102 102 88 84 93 112 126 134 137 141 144 152 160 157 118 106 78 63 69 59 48 58 55 51 53 57 56 55 56 70 72 90 97 103 104 111 114 103 85 77
133 166 192 137 140 132 132 126 114 124 158 172 145 138 137 138 144 151 157 160 172 171 162 156 145 109 94 79 73 50 51 48 51 55 60 59 52 48 46 43 51 55 67 60 62 59 62 77 98
129 169 146 139 124 126 137 132 114 151 188 146 142 141 143 149 160 167 167 166 154 145 160 155 142 128 123 110 96 81 72 61 60 62 69 70 57 46 46 48 43 52 62 68 58 52 39 58 119
107 99 83 101 102 105 100 106 118 123 106 121 129 135 148 156 165 168 163 157 150 158 166 163 140 138 135 122 121 108 99 93 84 73 71 82 81 62 53 49 50 49 57 77 79 70 52 53 53
112 86 77 80 88 96 101 79 76 128 124 129 139 150 159 166 168 158 157 161 167 171 172 158 146 148 134 128 127 121 115 103 83 79 83 91 103 99 90 71 50 37 37 54 104 134 98 29 53
89 77 54 61 94 108 102 58 17 159 138 143 155 160 164 173 173 179 181 178 178 175 167 161 162 145 137 136 138 123 116 110 99 85 88 101 114 118 109 93 46 9 36 65 75 75 72 63 56
61 70 71 270 122 125 118 216 225 158 147 157 167 169 172 182 187 191 185 180 174 165 168 175 169 149 148 144 139 114 110 118 129 125 85 91 123 127 112 95 23 5 53 69 77 70 76 60 55
43 112 208 256 169 138 142 214 193 164 158 171 179 182 183 191 199 197 188 182 177 173 171 169 161 151 151 144 128 112 100 104 107 97 98 101 123 133 129 124 25 50 65 54 72 65 92 105 85
203 185 199 208 207 142 164 217 179 174 173 184 190 192 194 202 208 195 185 179 177 174 168 164 161 156 143 128 103 73 62 23 37 129 206 183 172 149 133 133 79 67 78 52 64 76 60 84 67
160 157 181 225 193 152 198 212 191 183 186 193 199 202 208 214 207 183 179 172 168 170 169 169 167 169 148 141 149 150 195 248 268 243 219 200 184 161 151 145 118 107 115 115 102 91 75 56 72
142 150 170 302 140 151 189 240 201 190 200 201 201 206 208 205 190 187 180 174 177 181 180 178 182 180 176 173 166 163 160 191 220 265 265 223 199 191 186 172 171 163 134 104 106 115 115 128 96
167 178 185 174 77 58 94 331 218 212 206 208 207 206 201 204 199 195 187 187 183 187 188 190 189 186 184 170 129 102 74 44 27 336 295 269 220 209 190 177 176 172 166 196 215 178 167 189 239
222 210 166 145 117 318 107 279 286 225 212 216 214 207 207 207 200 193 188 188 191 195 189 188 184 182 181 166 159 161 169 192 223 225 242 283 256 231 202 184 184 189 189 211 228 193 181 170 215
192 125 113 119 122 62 31 152 288 188 228 231 222 213 208 199 193 192 194 195 194 190 184 183 177 181 180 173 175 172 185 206 220 221 259 293 307 286 240 198 184 197 211 222 231 211 192 184 193
125 76 60 52 72 359 241 169 278 229 220 233 224 218 210 197 194 195 193 189 191 185 182 178 176 188 184 180 180 178 187 196 193 212 231 252 275 284 271 218 197 206 219 228 230 219 201 198 197
103 96 55 15 18 250 246 191 249 246 225 220 218 216 207 193 192 193 187 189 191 187 186 180 178 193 189 184 189 192 195 193 199 206 214 223 240 248 255 226 205 213 228 233 220 206 219 206 199
165 141 155 182 206 264 286 228 251 256 248 228 217 211 194 191 194 197 195 194 193 191 187 183 185 194 191 192 199 199 195 195 203 203 208 216 224 235 241 218 214 217 225 234 210 208 226 207 208
137 162 157 129 139 164 275 283 301 298 298 233 207 193 200 200 198 198 195 193 191 190 190 188 187 193 194 196 197 200 201 201 206 208 208 220 225 224 224 225 227 228 227 226 198 205 229 206 212
140 144 108 117 140 217 283 269 250 254 244 240 228 215 215 204 201 197 192 193 193 191 187 184 186 193 197 194 200 209 209 209 206 201 213 218 221 224 218 227 231 228 227 218 195 217 230 208 229
123 105 110 112 143 152 218 264 230 219 216 212 224 222 215 207 203 197 193 190 186 179 179 183 190 191 194 199 202 209 206 203 201 207 215 214 216 219 227 227 224 226 228 218 205 233 237 230 253
156 162 146 147 191 166 169 261 267 226 220 208 218 225 220 208 203 194 186 180 178 183 184 188 192 195 203 199 197 206 205 198 201 212 219 212 213 219 221 218 217 228 232 217 213 234 243 240 251